Regional Weather Roundup
Issued by NWS

Home | Current Version | Previous Version | Graphics & Text | Print | Product List | Glossary On
Versions: 1 2 3 4 5 6 7 8 9 10 11 12 13 14 15 16 17 18 19 20 21 22 23 24 25 26 27 28 29 30 31 32 33 34 35 36 37 38 39 40 41 42 43 44 45 46 47 48 49 50
000
ASUS45 KCYS 300410
RWRWY

WYOMING REGIONAL WEATHER ROUNDUP
NATIONAL WEATHER SERVICE CHEYENNE WY
1000 PM MDT WED JUL 29 2015

NOTE:  "FAIR" INDICATES FEW OR NO CLOUDS BELOW 12,000 FEET
WITH NO SIGNIFICANT WEATHER AND/OR OBSTRUCTIONS TO VISIBILITY.

WYZ001-300500-
YELLOWSTONE NATIONAL PARK

CITY           SKY/WX    TMP DP  RH WIND       PRES   REMARKS
LK YELLOWSTONE   N/A     48  36  63 CALM      30.50R
W YELLOWSTONE  NOT AVBL

$$
WYZ002>013-054>058-071-098>099-300500-
NORTHERN WYOMING

CITY           SKY/WX    TMP DP  RH WIND       PRES   REMARKS
JACKSON        FAIR      57  37  47 E6        30.40R
CODY           FAIR      64  34  32 CALM      30.30R
GREYBULL       FAIR      73  31  21 CALM      30.20R
WORLAND        FAIR      64  26  23 E5        30.21R
SHERIDAN       FAIR      58  45  62 SE3       30.24R
BUFFALO        FAIR      61  38  42 W8        30.30R
GILLETTE       FAIR      55  39  54 SW5       30.24R
HULETT         FAIR      64  36  34 E3        30.26R
NEWCASTLE      FAIR      64  34  32 N5        30.25R

$$
WYZ014>020-022>026-101>103-300500-
CENTRAL WYOMING

CITY           SKY/WX    TMP DP  RH WIND       PRES   REMARKS
BIG PINEY      FAIR      57  27  31 N8        30.43R
PINEDALE       FAIR      54  34  47 W6        30.43R
DUBOIS         FAIR      59  30  33 NW8       30.43R
LANDER         FAIR      66  31  27 SW10      30.28R
RIVERTON       FAIR      69  24  18 N8        30.29R
CASPER         FAIR      58  24  27 CALM      30.29R
DOUGLAS        FAIR      63  30  28 E9        30.28R

$$
WYZ021-027>030-104>119-300500-
SOUTHERN WYOMING

CITY           SKY/WX    TMP DP  RH WIND       PRES   REMARKS
EVANSTON       FAIR      63  17  17 W12       30.43R
KEMMERER       FAIR      59  28  31 N8        30.44R
FORT BRIDGER   CLEAR     63  14  15 W9        30.45R
ROCK SPRINGS   FAIR      66   9  10 S5        30.39R
DIXON          FAIR      58  18  20 E7        30.40R
RAWLINS        FAIR      56  14  19 NW8       30.39R
SARATOGA       FAIR      55  19  24 S5        30.41R
LARAMIE        FAIR      65  44  46 SE7       30.42R
CHEYENNE       FAIR      65  48  54 SE8       30.35R
TORRINGTON     FAIR      71  49  45 E8        30.22R
PINE BLUFFS    FAIR      66  43  42 SE10      30.30R

$$


USA.gov is the U.S. government's official web portal to all federal, state and local government web resources and services.